Location: Palo Alto
(37.4420°N, 122.1420°W)
Time: 23:20:18
(UTC-07:00)

ARGOS - Visible Passes

Search period start: 01 August 2015 00:00
Search period end: 11 August 2015 00:00
Orbit: 820 x 835 km, 98.7° (Epoch: 01 August)

Date Brightness Start Highest point End Pass type
(mag) Time Alt. Az. Time Alt. Az. Time Alt. Az.
01 Aug 4.9 21:16:21 11° E 21:18:57 15° ENE 21:22:06 10° NNE visible
01 Aug 3.3 22:57:52 57° SSW 22:58:43 65° WSW 23:04:03 10° NNW visible
02 Aug 5.3 21:00:17 10° ENE 21:00:40 10° ENE 21:01:26 10° NE visible
02 Aug 3.0 22:39:12 60° SSE 22:40:12 84° ENE 22:45:36 10° NNW visible
03 Aug 3.3 22:20:32 46° ESE 22:21:45 57° ENE 22:27:01 10° N visible
04 Aug 5.3 00:02:04 16° W 00:02:28 16° W 00:05:35 10° NW visible
04 Aug 3.8 22:01:52 32° ESE 22:03:20 38° ENE 22:08:17 10° N visible
04 Aug 4.8 23:43:24 24° W 23:43:43 24° W 23:47:58 10° NW visible
05 Aug 4.3 21:43:13 22° E 21:44:57 26° ENE 21:49:23 10° NNE visible
05 Aug 4.2 23:24:45 36° WSW 23:25:04 36° W 23:29:58 10° NNW visible
06 Aug 4.8 21:24:33 14° E 21:26:37 18° ENE 21:30:15 10° NNE visible
06 Aug 3.5 23:06:05 54° WSW 23:06:28 55° W 23:11:45 10° NNW visible
07 Aug 5.1 21:06:25 10° E 21:08:19 12° ENE 21:10:32 10° NE visible
07 Aug 3.0 22:47:26 72° SSW 22:47:57 83° WSW 22:53:21 10° NNW visible
08 Aug 3.1 22:28:46 60° ESE 22:29:28 67° ENE 22:34:49 10° N visible
09 Aug 5.5 00:10:18 13° W 00:10:19 13° W 00:12:42 10° WNW visible
09 Aug 3.5 22:10:07 41° E 22:11:02 45° ENE 22:16:09 10° N visible
09 Aug 5.0 23:51:39 21° W 23:51:39 21° W 23:55:25 10° NW visible
10 Aug 4.1 21:51:28 28° E 21:52:39 31° ENE 21:57:20 10° N visible
10 Aug 4.5 23:32:59 31° W 23:32:59 31° W 23:37:33 10° NW visible
